Zurück zum Katalog

POPACS 2

AktivWissenschaftPO
NORAD 39269·PAYLOAD·🇺🇸 United States

Gestartet Sep 29, 2013 von Vandenberg Space Force Base

Loading…

Nächste Überflüge (nächste 24 Stunden)

TLE

AktuellSource: Space-Track

Epoche: Sep 14, 2026, 09:37 UTC

1 39269U 13055E   26257.40098080  .00010240  00000-0  17031-3 0  9996
2 39269  80.9914  41.8459 0405632 266.7735  88.7011 14.93867772676524

Verfolge POPACS 2 in Echtzeit mit AllMySat

Download on the App Store